TheGetRank SiteMap Page 8530
Home 8480 8481 8482 8483 8484 8485 8486 8487 8488 8489 8490 8491 8492 8493 8494 8495 8496 8497 8498 8499 8500 8501 8502 8503 8504 8505 8506 8507 8508 8509 8510 8511 8512 8513 8514 8515 8516 8517 8518 8519 8520 8521 8522 8523 8524 8525 8526 8527 8528 8529 8530 8531 8532 8533 8534 8535 8536 8537 8538 8539 8540 8541 8542 8543 8544 8545 8546 8547 8548 8549 8550 8551 8552 8553 8554 8555 8556 8557 8558 8559 8560 8561 8562 8563 8564 8565 8566 8567 8568 8569 8570 8571 8572 8573 8574 8575 8576 8577 8578 8579 8580
S.NO. Website Pagerank Alexa Rank Last Updated
8529000 as-sure.com 0 23694595 2012-02-29 12:35:36
8529001 asanatomik.com.tr 0 27164527 2012-02-29 12:35:36
8529002 arvusmg.com 0 No Rank 2012-02-29 12:35:37
8529003 0920209745.com 0 18771163 2012-02-29 12:35:38
8529004 as-online.lv 0 No Rank 2012-02-29 12:35:38
8529005 asai-togei.com 0 No Rank 2012-02-29 12:35:38
8529006 arzukaprol.net 0 3283758 2012-02-29 12:35:39
8529007 arvartscenter.org 0 10797419 2012-02-29 12:35:40
8529008 apropertycareer.co.uk 0 18246904 2012-02-29 12:35:42
8529009 arunshrivastava.com 0 No Rank 2012-02-29 12:35:44
8529010 refrigeratedfoods.org 0 19605568 2012-02-29 12:35:45
8529011 0920264456.21housebook.com.tw 0 382821 2012-02-29 12:35:45
8529012 artworkbyscotterdman.com 0 No Rank 2012-02-29 12:35:46
8529013 artzandra.com 0 No Rank 2012-02-29 12:35:46
8529014 0920209745.iyuhouse.com 0 2259304 2012-02-29 12:35:46
8529015 artsy-dartsy.com 0 6965706 2012-02-29 12:35:47
8529016 artuazh.com 0 No Rank 2012-02-29 12:35:47
8529017 arukahmedicine.com 0 No Rank 2012-02-29 12:35:48
8529018 artshop.hr 0 3843176 2012-02-29 12:35:48
8529019 artxcel.com 0 5174853 2012-02-29 12:35:48
8529020 aruldigital.com 0 No Rank 2012-02-29 12:35:48
8529021 samdavisyouthcamp.org 0 No Rank 2012-02-29 12:35:49
8529022 artscatter.com 0 1745793 2012-02-29 12:35:49
8529023 artprintsboutique.com 0 No Rank 2012-02-29 12:35:49
8529024 artystyczna.biz 0 No Rank 2012-02-29 12:35:50
8529025 0920427010.21housebook.com.tw 0 382821 2012-02-29 12:35:51
8529026 tulsa-bee-removal.com 0 5516688 2012-02-29 12:35:51
8529027 0920751313.21housebook.com.tw 0 382821 2012-02-29 12:35:53
8529028 0920809384.21housebook.com.tw 0 382821 2012-02-29 12:35:55
8529029 artisrael.co.il 0 27196545 2012-02-29 12:35:55
8529030 0920511858.yes319.com 0 162036 2012-02-29 12:35:56
8529031 artistsingeorgia.com 0 No Rank 2012-02-29 12:35:57
8529032 artillery.in 0 No Rank 2012-02-29 12:35:57
8529033 artifactatlanta.com 0 15961744 2012-02-29 12:35:58
8529034 0920991280.21housebook.com.tw 0 382821 2012-02-29 12:35:58
8529035 artistick.ru 0 5800582 2012-02-29 12:35:58
8529036 consumers-banquet.com 0 17143756 2012-02-29 12:35:58
8529037 articulatio.com 0 No Rank 2012-02-29 12:35:58
8529038 0920870278.21housebook.com.tw 0 382821 2012-02-29 12:36:02
8529039 fashionskirt.zlio.net 0 1599284 2012-02-29 12:36:04
8529040 0921059997.21housebook.com.tw 0 382821 2012-02-29 12:36:05
8529041 artforlifetattoo.com 0 23626757 2012-02-29 12:36:05
8529042 arthritischeck.com 0 13022514 2012-02-29 12:36:06
8529043 arthurlular.com 0 26212551 2012-02-29 12:36:06
8529044 artgk-fastsite.ru 0 10488618 2012-02-29 12:36:07
8529045 articleofhealth.com 0 2472483 2012-02-29 12:36:07
8529046 articlespinner.org 0 126194 2012-02-29 12:36:08
8529047 artespeaking.com 0 5576085 2012-02-29 12:36:09
8529048 articleprints.com 0 No Rank 2012-02-29 12:36:10
8529049 aslani-co.com 0 No Rank 2012-02-29 12:36:11
8529050 arthritishelp4all.com 0 No Rank 2012-02-29 12:36:13
8529051 0921115632.21housebook.com.tw 0 382821 2012-02-29 12:36:14
8529052 artesmagazine.com 0 2736879 2012-02-29 12:36:14
8529053 artdodd.ca 0 21162465 2012-02-29 12:36:15
8529054 shoecarnival.zlio.net 0 1599284 2012-02-29 12:36:16
8529055 nusmountaineering.com 0 5805733 2012-02-29 12:36:16
8529056 artcitytattoo.net 0 23827210 2012-02-29 12:36:17
8529057 artery-school.ru 0 2954822 2012-02-29 12:36:17
8529058 0921096914.yes319.com 0 162036 2012-02-29 12:36:18
8529059 artabloom.com 0 No Rank 2012-02-29 12:36:18
8529060 artandspacegallery.com 0 No Rank 2012-02-29 12:36:19
8529061 artbil.com 0 No Rank 2012-02-29 12:36:19
8529062 art-prints-gallery.com 0 1390349 2012-02-29 12:36:19
8529063 0921133368.21housebook.com.tw 0 382821 2012-02-29 12:36:21
8529064 0921175738.21housebook.com.tw 0 382821 2012-02-29 12:36:23
8529065 art-gg.eu 0 No Rank 2012-02-29 12:36:24
8529066 szlovenia.utazni.info 0 1627059 2012-02-29 12:36:24
8529067 art-home-ardeche.com 0 8105106 2012-02-29 12:36:24
8529068 0921296298.21housebook.com.tw 0 382821 2012-02-29 12:36:25
8529069 arsoft.freei.me 0 214130 2012-02-29 12:36:26
8529070 art-gemma.ru 0 14730469 2012-02-29 12:36:26
8529071 arstaholmar.se 0 No Rank 2012-02-29 12:36:27
8529072 buckleysmilwaukee.com 0 No Rank 2012-02-29 12:36:28
8529073 arson.ee 0 No Rank 2012-02-29 12:36:28
8529074 arsheeimages.com 0 No Rank 2012-02-29 12:36:28
8529075 arsmebel.ru 0 1662597 2012-02-29 12:36:29
8529076 beyondprinting.com.au 0 No Rank 2012-02-29 12:36:29
8529077 pollutionissues.co.uk 0 No Rank 2012-02-29 12:36:31
8529078 gamesdisneychanel.com 0 10460033 2012-02-29 12:36:31
8529079 arrowpointrealtyinc.com 0 14272070 2012-02-29 12:36:32
8529080 successquik.com 0 93159 2012-02-29 12:36:35
8529081 arrowheadatvail.net 0 17606873 2012-02-29 12:36:35
8529082 arras-escrime.fr.cx 0 3205385 2012-02-29 12:36:35
8529083 arquitrau.com 0 No Rank 2012-02-29 12:36:36
8529084 aronmarvel.com 0 No Rank 2012-02-29 12:36:36
8529085 aroundtheriverblogs.com 0 14870905 2012-02-29 12:36:37
8529086 arowana-dokkun.com 0 7346610 2012-02-29 12:36:37
8529087 aromayou.ru 0 7646920 2012-02-29 12:36:38
8529088 hallie-vanklooster.nl 0 No Rank 2012-02-29 12:36:39
8529089 armyschoolagartala.com 0 No Rank 2012-02-29 12:36:42
8529090 arnoldhonda.com 0 No Rank 2012-02-29 12:36:42
8529091 armshaper.com 0 No Rank 2012-02-29 12:36:44
8529092 arnyektattoo.hu 0 20661100 2012-02-29 12:36:45
8529093 armovna.cz 0 No Rank 2012-02-29 12:36:45
8529094 armour-clad.com 0 No Rank 2012-02-29 12:36:46
8529095 armlawfirm.com 0 No Rank 2012-02-29 12:36:46
8529096 armesetcollections.com 0 No Rank 2012-02-29 12:36:46
8529097 armofellow.com 0 No Rank 2012-02-29 12:36:46
8529098 armagh.rootsireland.ie 0 262865 2012-02-29 12:36:47
8529099 armaturealed.info 0 No Rank 2012-02-29 12:36:48
8529100 burjkhalifahtower.com 0 4242713 2012-02-29 12:36:49
8529101 armadilla.ru 0 No Rank 2012-02-29 12:36:52
8529102 armadaassembly.org 0 No Rank 2012-02-29 12:36:52
8529103 ark-pol.pl 0 15966053 2012-02-29 12:36:55
8529104 ecolink21.net 0 No Rank 2012-02-29 12:36:56
8529105 arkitectrue.com 0 3079240 2012-02-29 12:36:56
8529106 econst.net 0 No Rank 2012-02-29 12:36:56
8529107 ecommute-toyota.jp 0 No Rank 2012-02-29 12:36:57
8529108 arkaterm.org 0 No Rank 2012-02-29 12:36:58
8529109 economicstimulusact.com 0 15167878 2012-02-29 12:36:59
8529110 woodlandsrobotics.org 0 No Rank 2012-02-29 12:36:59
8529111 rosiesbloomington.com 0 18679077 2012-02-29 12:37:03
8529112 edenmennonite.com 0 No Rank 2012-02-29 12:37:03
8529113 ecscleaning.com 0 No Rank 2012-02-29 12:37:03
8529114 ecosimpflooring.com 0 No Rank 2012-02-29 12:37:04
8529115 edmundgriffith.com 0 No Rank 2012-02-29 12:37:05
8529116 edmontonmortgagegroup.com 0 No Rank 2012-02-29 12:37:05
8529117 ecorossnab.ru 0 No Rank 2012-02-29 12:37:05
8529118 tarjetasndeoli.com.ar 0 No Rank 2012-02-29 12:37:05
8529119 edilceramic.ch 0 11558588 2012-02-29 12:37:05
8529120 ednsonsautobody.com 0 No Rank 2012-02-29 12:37:05
8529121 edizi.com 0 15721912 2012-02-29 12:37:06
8529122 ecp-ko.com 0 No Rank 2012-02-29 12:37:06
8529123 shorelineballroom.com 0 7878626 2012-02-29 12:37:06
8529124 edinstvo-trans.ru 0 No Rank 2012-02-29 12:37:09
8529125 educatemessage.info 0 No Rank 2012-02-29 12:37:10
8529126 fenedgetextiles.co.uk 0 20129787 2012-02-29 12:37:10
8529127 educationsolutionsnow.com 0 No Rank 2012-02-29 12:37:12
8529128 edukacije.com 0 1531104 2012-02-29 12:37:14
8529129 edwardloedding.com 0 No Rank 2012-02-29 12:37:15
8529130 edwards-hr.com 0 No Rank 2012-02-29 12:37:15
8529131 educationudaipur.com 0 5682652 2012-02-29 12:37:15
8529132 eespd.com 0 No Rank 2012-02-29 12:37:16
8529133 absoluteclasslimo.com 0 14980839 2012-02-29 12:37:16
8529134 efaguvenlik.com 0 No Rank 2012-02-29 12:37:16
8529135 effectkw.com 0 No Rank 2012-02-29 12:37:20
8529136 effettooro.com 0 No Rank 2012-02-29 12:37:21
8529137 efg-ida.com 0 23932093 2012-02-29 12:37:22
8529138 landingboatsupply.com 0 No Rank 2012-02-29 12:37:22
8529139 egpbrass.com 0 No Rank 2012-02-29 12:37:24
8529140 egasenoeg.tk 0 No Rank 2012-02-29 12:37:24
8529141 eforosh.ir 0 1680666 2012-02-29 12:37:25
8529142 efl43.com 0 No Rank 2012-02-29 12:37:25
8529143 efgg.biz 0 No Rank 2012-02-29 12:37:25
8529144 egamesneturls.info 0 No Rank 2012-02-29 12:37:25
8529145 exploringnewideas.com 0 No Rank 2012-02-29 12:37:26
8529146 anxietypanicattacksymptoms.org 0 23826483 2012-02-29 12:37:27
8529147 weddingswaterside.com 0 9298779 2012-02-29 12:37:29
8529148 egybdeqaz.tk 0 No Rank 2012-02-29 12:37:29
8529149 egreenwalls.com 0 No Rank 2012-02-29 12:37:29
8529150 euqueroalegria.com.br 0 No Rank 2012-02-29 12:37:30
8529151 eicker.net 0 24772974 2012-02-29 12:37:32
8529152 forums.see-and-be.com 0 3106134 2012-02-29 12:37:32
8529153 egypthus.no 0 No Rank 2012-02-29 12:37:32
8529154 eigyou-trend.jp 0 1977919 2012-02-29 12:37:35
8529155 eii.org 0 422686 2012-02-29 12:37:35
8529156 decoratingsecrets.com 0 No Rank 2012-02-29 12:37:35
8529157 eikatoppen.no 0 No Rank 2012-02-29 12:37:35
8529158 lumpysdowntownslc.com 0 9054791 2012-02-29 12:37:35
8529159 eif.co.nz 0 No Rank 2012-02-29 12:37:36
8529160 eiichifudousan.com 0 No Rank 2012-02-29 12:37:36
8529161 einaka.com 0 No Rank 2012-02-29 12:37:37
8529162 eicssh.com 0 No Rank 2012-02-29 12:37:37
8529163 springvalebaptist.com 0 No Rank 2012-02-29 12:37:39
8529164 eiosh.com 0 15170461 2012-02-29 12:37:40
8529165 rocknrollfortunes.com 0 No Rank 2012-02-29 12:37:40
8529166 findctcontractors.com 0 5461406 2012-02-29 12:37:41
8529167 ekalsoft.com 0 626695 2012-02-29 12:37:44
8529168 elandivon.com 0 No Rank 2012-02-29 12:37:45
8529169 ekamleasing.com 0 No Rank 2012-02-29 12:37:45
8529170 einweitererschritt.net 0 No Rank 2012-02-29 12:37:47
8529171 ekkoglass.com 0 25794276 2012-02-29 12:37:50
8529172 2jikai.luce-dress.com 0 No Rank 2012-02-29 12:37:50
8529173 nebobaptistchurch.com 0 No Rank 2012-02-29 12:37:51
8529174 electfederer.com 0 No Rank 2012-02-29 12:37:51
8529175 eixe.es 0 22804293 2012-02-29 12:37:51
8529176 fertilityexpert.co.uk 0 6704724 2012-02-29 12:37:52
8529177 electricite-climatisation.com 0 No Rank 2012-02-29 12:37:56
8529178 heavenboundchurch.net 0 No Rank 2012-02-29 12:37:56
8529179 electrode.it 0 No Rank 2012-02-29 12:37:57
8529180 ekonoja.com 0 No Rank 2012-02-29 12:37:59
8529181 profitablebusinessopportunity.weebly.com 0 No Rank 2012-02-29 12:38:05
8529182 ekoline.kiev.ua 0 9795977 2012-02-29 12:38:06
8529183 elginjobs.info 0 No Rank 2012-02-29 12:38:06
8529184 eldiablohf.com 0 No Rank 2012-02-29 12:38:07
8529185 elevasion.net 0 No Rank 2012-02-29 12:38:07
8529186 elektro-nothegger.at 0 No Rank 2012-02-29 12:38:08
8529187 electrichumanproject.com 0 No Rank 2012-02-29 12:38:09
8529188 electronicdebit.com 0 No Rank 2012-02-29 12:38:09
8529189 elektra-n.org.ua 0 No Rank 2012-02-29 12:38:09
8529190 elesta.info 0 No Rank 2012-02-29 12:38:11
8529191 electricmotorcycles.ie 0 4635378 2012-02-29 12:38:11
8529192 elenamebel.ru 0 No Rank 2012-02-29 12:38:11
8529193 electricgriddlereviews.net 0 3159888 2012-02-29 12:38:13
8529194 elcajonseniorcare.com 0 No Rank 2012-02-29 12:38:13
8529195 veddio.com 0 2749584 2012-02-29 12:38:13
8529196 safewatersports.co.uk 0 No Rank 2012-02-29 12:38:14
8529197 anobamaminute.com 0 No Rank 2012-02-29 12:38:16
8529198 anntonnursery.co.nz 0 9990716 2012-02-29 12:38:17
8529199 musicforlife.zlio.net 0 1599284 2012-02-29 12:38:17
8529200 cavalierautogroup.com 0 12169010 2012-02-29 12:38:17
8529201 annettedanielsartist.com 0 No Rank 2012-02-29 12:38:18
8529202 elena-dilbat.info 0 7426471 2012-02-29 12:38:19
8529203 annonces.24heures.ch 0 25964 2012-02-29 12:38:19
8529204 hmrl261.homestead.com 0 No Rank 2012-02-29 12:38:24
8529205 annettestroud.com 0 No Rank 2012-02-29 12:38:25
8529206 annamagdalenaauzinger.com 0 No Rank 2012-02-29 12:38:25
8529207 annamanning.com 0 No Rank 2012-02-29 12:38:26
8529208 annecyoutdoor.com 0 No Rank 2012-02-29 12:38:26
8529209 palsindiancuisine.net 0 17912732 2012-02-29 12:38:26
8529210 annawallin.com 0 No Rank 2012-02-29 12:38:26
8529211 ankurpratishthan.org 0 13218769 2012-02-29 12:38:27
8529212 annahawaii.com 0 No Rank 2012-02-29 12:38:27
8529213 annascaulblackpudding.com 0 6285568 2012-02-29 12:38:27
8529214 annazeibig.com 0 No Rank 2012-02-29 12:38:27
8529215 annaallport.com 0 15833154 2012-02-29 12:38:28
8529216 newlifeinfrance.co.uk 0 5382900 2012-02-29 12:38:31
8529217 southernautowomen.org 0 22546490 2012-02-29 12:38:32
8529218 joesalleymma.zlio.net 0 1599284 2012-02-29 12:38:34
8529219 anitamiller.biz 0 22844403 2012-02-29 12:38:35
8529220 anitacrawley.net 0 No Rank 2012-02-29 12:38:35
8529221 anjomansangisf.com 0 7705863 2012-02-29 12:38:35
8529222 animeron.info 0 320456 2012-02-29 12:38:37
8529223 ankaratruvapaten.com 0 No Rank 2012-02-29 12:38:38
8529224 annebinghamblog.com 0 No Rank 2012-02-29 12:38:45
8529225 animalcompanion.eu 0 No Rank 2012-02-29 12:38:45
8529226 animallovertoo.com 0 12446726 2012-02-29 12:38:45
8529227 landscapeexpert.co.uk 0 25350526 2012-02-29 12:38:45
8529228 angrejs.pl 0 No Rank 2012-02-29 12:38:45
8529229 animacionturistica.com 0 21953467 2012-02-29 12:38:47
8529230 puritycosmetics.co.uk 0 20296813 2012-02-29 12:38:47
8529231 www2.hemantmistry.com 0 20864210 2012-02-29 12:38:49
8529232 electronics4you.mp 0 No Rank 2012-02-29 12:38:49
8529233 angelicimaging.com 0 No Rank 2012-02-29 12:38:53
8529234 angelwinggates.com 0 No Rank 2012-02-29 12:38:53
8529235 angeloministorage.com 0 No Rank 2012-02-29 12:38:54
8529236 angellegacy.com 0 No Rank 2012-02-29 12:38:54
8529237 angelleadesigns.com 0 15883645 2012-02-29 12:38:54
8529238 angelologia.jake.sk 0 No Rank 2012-02-29 12:38:55
8529239 dougheydonluthier.com 0 No Rank 2012-02-29 12:38:56
8529240 angularcheilitishelp.com 0 No Rank 2012-02-29 12:38:57
8529241 cumberlandfederal.com 0 No Rank 2012-02-29 12:38:58
8529242 especialfurniture.com 0 No Rank 2012-02-29 12:38:59
8529243 killackeys.com 0 No Rank 2012-02-29 12:39:02
8529244 angelafioretti.com 0 No Rank 2012-02-29 12:39:02
8529245 angelbymyside.com 0 No Rank 2012-02-29 12:39:03
8529246 angelescondohotel.com 0 No Rank 2012-02-29 12:39:03
8529247 angelaprimmministries.com 0 No Rank 2012-02-29 12:39:03
8529248 angelabyrnecreations.com 0 15490819 2012-02-29 12:39:03
8529249 angelcreationindia.com 0 12146407 2012-02-29 12:39:03
8529250 anemiasymptomsandtreatment.com 0 No Rank 2012-02-29 12:39:04
8529251 angeldelaguarda.com 0 No Rank 2012-02-29 12:39:04
8529252 anfini-union.com 0 No Rank 2012-02-29 12:39:04
8529253 angelarabiola.com 0 No Rank 2012-02-29 12:39:04
8529254 anemptypage.com 0 No Rank 2012-02-29 12:39:05
8529255 aneoi.com 0 12074755 2012-02-29 12:39:05
8529256 anestube.org 0 No Rank 2012-02-29 12:39:05
8529257 aneseniya.ru 0 No Rank 2012-02-29 12:39:06
8529258 menopauseexpert.co.uk 0 16727849 2012-02-29 12:39:06
8529259 texasexchangebank.com 0 No Rank 2012-02-29 12:39:10
8529260 iptu.fiscosoft.com.br 0 139281 2012-02-29 12:39:14
8529261 kjshomestore.zlio.net 0 1599284 2012-02-29 12:39:15
8529262 andshewhispered.com 0 No Rank 2012-02-29 12:39:15
8529263 andytaffs.com 0 No Rank 2012-02-29 12:39:16
8529264 andriessen-hintze-consulting.de 0 No Rank 2012-02-29 12:39:16
8529265 andrewdisney.com 0 No Rank 2012-02-29 12:39:16
8529266 andrzejkowasz.com 0 18027341 2012-02-29 12:39:16
8529267 andregadoury.com 0 No Rank 2012-02-29 12:39:17
8529268 anecova.com 0 15413621 2012-02-29 12:39:17
8529269 androidminitablet.net 0 22699435 2012-02-29 12:39:17
8529270 androidactivist.org 0 491061 2012-02-29 12:39:18
8529271 aneestore.com 0 15811562 2012-02-29 12:39:18
8529272 hishandsinservice.org 0 No Rank 2012-02-29 12:39:18
8529273 motionintegrators.com 0 No Rank 2012-02-29 12:39:18
8529274 andrisautoapmaciba.lv 0 No Rank 2012-02-29 12:39:19
8529275 hereticalbuilders.com 0 2583659 2012-02-29 12:39:20
8529276 andrewshearman.com 0 No Rank 2012-02-29 12:39:21
8529277 bookdepositorycom.com 0 No Rank 2012-02-29 12:39:24
8529278 andpeter.com 0 No Rank 2012-02-29 12:39:25
8529279 andredequadros.com 0 No Rank 2012-02-29 12:39:25
8529280 andersontestingequipment.com 0 No Rank 2012-02-29 12:39:25
8529281 andraanteau.com 0 No Rank 2012-02-29 12:39:25
8529282 andoyturist.no 0 20880003 2012-02-29 12:39:25
8529283 andreasoorikian.com 0 No Rank 2012-02-29 12:39:26
8529284 andre-cafe.com 0 26631554 2012-02-29 12:39:26
8529285 andersonassociatescpas.com 0 No Rank 2012-02-29 12:39:28
8529286 andershundservice.se 0 No Rank 2012-02-29 12:39:28
8529287 arkmarkbrindes.com.br 0 No Rank 2012-02-29 12:39:31
8529288 iphonetechsupport.com 0 No Rank 2012-02-29 12:39:33
8529289 121reform.com 0 3271071 2012-02-29 12:39:33
8529290 titleloansnewyork.net 0 No Rank 2012-02-29 12:39:34
8529291 anatolykrynsky.com 0 No Rank 2012-02-29 12:39:34
8529292 anatomicaltravel.com 0 2399162 2012-02-29 12:39:34
8529293 121techsupport.co.uk 0 No Rank 2012-02-29 12:39:35
8529294 ancillastaffing.com 0 No Rank 2012-02-29 12:39:35
8529295 anbo.nl 0 1194569 2012-02-29 12:39:35
8529296 anastasiaprokofieva.com 0 No Rank 2012-02-29 12:39:36
8529297 ancient-tome.com 0 No Rank 2012-02-29 12:39:36
8529298 anatolian-vineyards.com 0 27480594 2012-02-29 12:39:36
8529299 121tenshoku.com 0 4052886 2012-02-29 12:39:39
8529300 anarchyxtv.com 0 No Rank 2012-02-29 12:39:40
8529301 roydrachmanrealty.com 0 No Rank 2012-02-29 12:39:40
8529302 121watt.de 0 161882 2012-02-29 12:39:42
8529303 121tremont.com 0 No Rank 2012-02-29 12:39:43
8529304 analyticrehab.com 0 9881138 2012-02-29 12:39:43
8529305 analyst-a.com 0 No Rank 2012-02-29 12:39:43
8529306 stablecorepilates.com 0 14006321 2012-02-29 12:39:43
8529307 anandasatchit.com.ar 0 No Rank 2012-02-29 12:39:43
8529308 121stores.com 0 No Rank 2012-02-29 12:39:44
8529309 anamc.com 0 No Rank 2012-02-29 12:39:44
8529310 analog-designs.com 0 No Rank 2012-02-29 12:39:44
8529311 121xtreamsuccess.com 0 No Rank 2012-02-29 12:39:45
8529312 anapa911.ru 0 No Rank 2012-02-29 12:39:45
8529313 ananclinica.com 0 17739078 2012-02-29 12:39:45
8529314 anamiorganics.com 0 No Rank 2012-02-29 12:39:45
8529315 midatlanticaikido.com 0 No Rank 2012-02-29 12:39:45
8529316 crystalbeerparlor.com 0 12282382 2012-02-29 12:39:49
8529317 qualitytitlegroup.com 0 No Rank 2012-02-29 12:39:51
8529318 amyreidel.com 0 24151842 2012-02-29 12:39:53
8529319 anabelhopkins.com 0 No Rank 2012-02-29 12:39:53
8529320 amynorskog.com 0 No Rank 2012-02-29 12:39:53
8529321 amundsengroup.com 0 17635878 2012-02-29 12:39:53
8529322 anahtarcinindunyasi.com 0 25847157 2012-02-29 12:39:54
8529323 amt-uebersetzungen.de 0 No Rank 2012-02-29 12:39:55
8529324 honlan.freeforums.org 0 4746 2012-02-29 12:39:57
8529325 amstucco.com 0 No Rank 2012-02-29 12:39:58
8529326 an-aleksandrit.com.ua 0 No Rank 2012-02-29 12:39:59
8529327 tilestilestiles.co.uk 0 No Rank 2012-02-29 12:40:00
8529328 motorboatyourself.com 0 10030303 2012-02-29 12:40:02
8529329 facapropaganda.com.br 0 No Rank 2012-02-29 12:40:03
8529330 amoryonki.com 0 1876681 2012-02-29 12:40:03
8529331 amoliafarmswindsorct.com 0 No Rank 2012-02-29 12:40:04
8529332 amopa31.net 0 No Rank 2012-02-29 12:40:04
8529333 amonkarcaterers.com 0 No Rank 2012-02-29 12:40:04
8529334 ampbiz.com 0 No Rank 2012-02-29 12:40:05
8529335 amsysindia.com 0 No Rank 2012-02-29 12:40:07
8529336 ampack.co.th 0 11033981 2012-02-29 12:40:07
8529337 themortgagelounge.com 0 No Rank 2012-02-29 12:40:07
8529338 g7mm.lipsittgroup.com 0 No Rank 2012-02-29 12:40:10
8529339 amma-music.do.am 0 No Rank 2012-02-29 12:40:11
8529340 amitproperties.com 0 5298736 2012-02-29 12:40:12
8529341 ammuregency.net 0 No Rank 2012-02-29 12:40:12
8529342 ams-rs.com 0 3314992 2012-02-29 12:40:12
8529343 amitabhalibrary.org 0 No Rank 2012-02-29 12:40:12
8529344 b2bwebsitedesigns.com 0 No Rank 2012-02-29 12:40:13
8529345 aminpartyplot.com 0 9165631 2012-02-29 12:40:14
8529346 amirbinali.com 0 No Rank 2012-02-29 12:40:14
8529347 amlam.net 0 No Rank 2012-02-29 12:40:15
8529348 12208321.boss.com.tw 0 166297 2012-02-29 12:40:16
8529349 miltonsavingsbank.com 0 No Rank 2012-02-29 12:40:16
8529350 amigosfundsoldi.com.ar 0 No Rank 2012-02-29 12:40:17
8529351 amigosde007.forumup.es 0 307042 2012-02-29 12:40:17
8529352 122120.com 0 12776974 2012-02-29 12:40:18
8529353 persia-restaurant.com 0 4812000 2012-02-29 12:40:18
8529354 amiclubwearcoupon.org 0 20089455 2012-02-29 12:40:20
8529355 12213318.boss.com.tw 0 166297 2012-02-29 12:40:20
8529356 americanwoodcarving.com 0 15707979 2012-02-29 12:40:21
8529357 americanweekends.com 0 No Rank 2012-02-29 12:40:21
8529358 maranathahouseinc.org 0 No Rank 2012-02-29 12:40:21
8529359 amgm.ie 0 No Rank 2012-02-29 12:40:22
8529360 americanpopulistparty.org 0 11944188 2012-02-29 12:40:23
8529361 risensaviorchurch.org 0 14526244 2012-02-29 12:40:23
8529362 122164.com 0 No Rank 2012-02-29 12:40:23
8529363 artforcancergroup.com 0 No Rank 2012-02-29 12:40:25
8529364 melaniemcdonald.co.uk 0 15025404 2012-02-29 12:40:26
8529365 americanphilosophy.net 0 13454548 2012-02-29 12:40:26
8529366 denalilawnandsnow.com 0 No Rank 2012-02-29 12:40:26
8529367 americanizations.com 0 27037143 2012-02-29 12:40:27
8529368 americanpinko.com 0 No Rank 2012-02-29 12:40:28
8529369 bitmode.blogs.sapo.pt 0 No Rank 2012-02-29 12:40:29
8529370 holdemmotorsports.com 0 No Rank 2012-02-29 12:40:30
8529371 americanextrusion.com 0 1628593 2012-02-29 12:40:30
8529372 122178.blog.51cto.com 0 1079 2012-02-29 12:40:31
8529373 tcsteinindustries.com 0 23803894 2012-02-29 12:40:31
8529374 ameliavitarelli.com 0 No Rank 2012-02-29 12:40:32
8529375 american-hydrosoil.com 0 No Rank 2012-02-29 12:40:32
8529376 amenitypoolsandspas.com 0 No Rank 2012-02-29 12:40:32
8529377 ameliaislandluxuryrealestate.com 0 No Rank 2012-02-29 12:40:33
8529378 12238.0577home.net 0 447155 2012-02-29 12:40:34
8529379 amcelltrucking.com 0 No Rank 2012-02-29 12:40:35
8529380 1225initiatives.net 0 No Rank 2012-02-29 12:40:36
8529381 michel-makelaardij.nl 0 No Rank 2012-02-29 12:40:37
8529382 12267427.boss.com.tw 0 166297 2012-02-29 12:40:39
8529383 ambulsurgery.ru 0 No Rank 2012-02-29 12:40:39
8529384 ambitionindustries.com 0 No Rank 2012-02-29 12:40:39
8529385 amberlifeinn.com 0 15108212 2012-02-29 12:40:40
8529386 amberburnside.com 0 No Rank 2012-02-29 12:40:41
8529387 122786.domex.ru 0 264230 2012-02-29 12:40:41
8529388 amberhobbs.com 0 21295738 2012-02-29 12:40:43
8529389 infinite-networks.net 0 No Rank 2012-02-29 12:40:44
8529390 ambature.com 0 14609945 2012-02-29 12:40:44
8529391 amazonen-muenchen.de 0 No Rank 2012-02-29 12:40:45
8529392 amber-line.com 0 No Rank 2012-02-29 12:40:46
8529393 amazonaretiashotel.com 0 27252990 2012-02-29 12:40:47
8529394 amarillo4rent.com 0 No Rank 2012-02-29 12:40:50
8529395 amandatrotterdds.com 0 No Rank 2012-02-29 12:40:50
8529396 1228266.live173.com 0 99659 2012-02-29 12:40:51
8529397 amazingamuzementz.com 0 No Rank 2012-02-29 12:40:51
8529398 amandalynch01.com 0 No Rank 2012-02-29 12:40:52
8529399 amandajohnston.ca 0 No Rank 2012-02-29 12:40:54
8529400 amaliadesigns.com 0 17806925 2012-02-29 12:40:58
8529401 am-stl.com 0 No Rank 2012-02-29 12:40:58
8529402 amable.ru 0 No Rank 2012-02-29 12:40:59
8529403 amadeuspropertysolutions.com 0 No Rank 2012-02-29 12:41:01
8529404 alwaysonthelevel.com 0 No Rank 2012-02-29 12:41:01
8529405 alwaysbouncin.com 0 No Rank 2012-02-29 12:41:01
8529406 12284002.boss.com.tw 0 166297 2012-02-29 12:41:01
8529407 alytustinkle.lt 0 No Rank 2012-02-29 12:41:02
8529408 alwayswiredbeadlady.com 0 No Rank 2012-02-29 12:41:03
8529409 alvarado314.org 0 No Rank 2012-02-29 12:41:08
8529410 aluslt.lt 0 23203452 2012-02-29 12:41:08
8529411 aluprofil.ru 0 No Rank 2012-02-29 12:41:10
8529412 aluprodukt.eu 0 No Rank 2012-02-29 12:41:11
8529413 alumalahram.com.eg 0 332544 2012-02-29 12:41:11
8529414 cartertwinsonline.net 0 1120398 2012-02-29 12:41:12
8529415 122843.hnce.com.cn 0 98357 2012-02-29 12:41:12
8529416 altivacomunicacion.com 0 No Rank 2012-02-29 12:41:12
8529417 122488.com 0 No Rank 2012-02-29 12:41:14
8529418 altintavukculuk.com 0 27566210 2012-02-29 12:41:14
8529419 alterszentrum-schoeftland.ch 0 No Rank 2012-02-29 12:41:15
8529420 petereardenspeaks.com 0 No Rank 2012-02-29 12:41:17
8529421 alterstated.com 0 No Rank 2012-02-29 12:41:17
8529422 alternativfurnituresolutions.be 0 No Rank 2012-02-29 12:41:18
8529423 altepost-gadmen.ch 0 No Rank 2012-02-29 12:41:18
8529424 122suncity.com 0 4598740 2012-02-29 12:41:18
8529425 alted.elblag.com.pl 0 802204 2012-02-29 12:41:19
8529426 122499.com 0 14983586 2012-02-29 12:41:19
8529427 122902.hnce.com.cn 0 98357 2012-02-29 12:41:20
8529428 123-127.co.uk 0 27430313 2012-02-29 12:41:21
8529429 alternativegenerators.com 0 No Rank 2012-02-29 12:41:21
8529430 alteainformatica.com 0 21356703 2012-02-29 12:41:21
8529431 tiffanylamps.zlio.net 0 1599284 2012-02-29 12:41:21
8529432 altaifest.ru 0 No Rank 2012-02-29 12:41:23
8529433 potter-wightman.co.uk 0 21021927 2012-02-29 12:41:23
8529434 altech-malaysia.com 0 No Rank 2012-02-29 12:41:24
8529435 estruturalgtec.com.br 0 No Rank 2012-02-29 12:41:25
8529436 123-4u.de 0 No Rank 2012-02-29 12:41:26
8529437 alshirawifm.com 0 8792451 2012-02-29 12:41:26
8529438 alschuthphotography.com 0 No Rank 2012-02-29 12:41:27
8529439 alt-muligmand.dk 0 9844124 2012-02-29 12:41:27
8529440 alsenios.de 0 No Rank 2012-02-29 12:41:27
8529441 alreynolds.com 0 No Rank 2012-02-29 12:41:28
8529442 alsson.com 0 4595091 2012-02-29 12:41:28
8529443 alsanglingadventures.com 0 11973499 2012-02-29 12:41:29
8529444 clarkesclassics.co.uk 0 No Rank 2012-02-29 12:41:29
8529445 alpunlumamuller.com 0 No Rank 2012-02-29 12:41:30
8529446 alpron.hr 0 No Rank 2012-02-29 12:41:31
8529447 ampc.memberclicks.net 0 222814 2012-02-29 12:41:31
8529448 alseebkwt.com 0 No Rank 2012-02-29 12:41:32
8529449 123-auto-car-loan-calculator.com 0 1436953 2012-02-29 12:41:32
8529450 ambarrukmo.com 0 5888581 2012-02-29 12:41:32
8529451 alphastudent.com 0 3095615 2012-02-29 12:41:32
8529452 alpineoil.cz 0 8063871 2012-02-29 12:41:33
8529453 123-bewerbung.de 0 16499749 2012-02-29 12:41:35
8529454 123-beamtendarlehen.de 0 12162755 2012-02-29 12:41:35
8529455 alphedys.fr 0 No Rank 2012-02-29 12:41:35
8529456 123-beach-hotel.com 0 17635659 2012-02-29 12:41:35
8529457 alphaosolutions.com 0 No Rank 2012-02-29 12:41:36
8529458 alphaservicesng.com 0 7550203 2012-02-29 12:41:36
8529459 alphadiv.com 0 270451 2012-02-29 12:41:37
8529460 123-bhkw.net 0 No Rank 2012-02-29 12:41:38
8529461 world-news-artist.com 0 19271122 2012-02-29 12:41:38
8529462 arizonastatemsa.org 0 No Rank 2012-02-29 12:41:38
8529463 alphagroup.org 0 18406521 2012-02-29 12:41:39
8529464 alovepoint.com 0 4385679 2012-02-29 12:41:40
8529465 win-a-free-t-shirt.com 0 11825340 2012-02-29 12:41:40
8529466 123-charter.de 0 No Rank 2012-02-29 12:41:41
8529467 alphabytecpu.com 0 No Rank 2012-02-29 12:41:41
8529468 123-cash.com 0 4039169 2012-02-29 12:41:41
8529469 arizonamastering.nl 0 No Rank 2012-02-29 12:41:42
8529470 arizonahomegroup.com 0 4545832 2012-02-29 12:41:43
8529471 123-devis-gratuit.com 0 26587305 2012-02-29 12:41:45
8529472 portofinocondoshoa.com 0 No Rank 2012-02-29 12:41:45
8529473 arifsoft.com 0 1332697 2012-02-29 12:41:45
8529474 arizonaexplorers.com 0 No Rank 2012-02-29 12:41:45
8529475 aripromoeventos.com 0 No Rank 2012-02-29 12:41:45
8529476 ariesbraeburn.com 0 No Rank 2012-02-29 12:41:45
8529477 arienvalizadeh.com 0 17158820 2012-02-29 12:41:47
8529478 123-christian-business-directory.com 0 No Rank 2012-02-29 12:41:47
8529479 arison.co.il 0 4168298 2012-02-29 12:41:47
8529480 arielsblog.com 0 379951 2012-02-29 12:41:48
8529481 arieltaubphotography.com 0 No Rank 2012-02-29 12:41:49
8529482 123-ebuch.de 0 23986011 2012-02-29 12:41:51
8529483 donovanengineering.com 0 No Rank 2012-02-29 12:41:53
8529484 arhipka.biz 0 No Rank 2012-02-29 12:41:54
8529485 123-free-solitaire-2006-card-games-suite.en.softonic.com 0 257 2012-02-29 12:41:55
8529486 smokymountainmedia.com 0 19807378 2012-02-29 12:41:55
8529487 argox.com.pl 0 14392594 2012-02-29 12:41:55
8529488 arhikeramos.ru 0 No Rank 2012-02-29 12:41:56
8529489 arhamcomposite.com 0 839652 2012-02-29 12:41:56
8529490 123-florist.com 0 16246512 2012-02-29 12:41:56
8529491 argenvinewines.com 0 No Rank 2012-02-29 12:41:57
8529492 argosart.hu 0 10684227 2012-02-29 12:41:57
8529493 arfriendsite.com 0 No Rank 2012-02-29 12:41:57
8529494 123-free-solitaire-card-games-suite.download.hdttp.com 0 307422 2012-02-29 12:41:58
8529495 integracaocielo.com.br 0 4911425 2012-02-29 12:41:59
8529496 aresumes.net 0 23826965 2012-02-29 12:42:00
8529497 arestop.com 0 24766601 2012-02-29 12:42:00
8529498 123-geldanlage.com 0 No Rank 2012-02-29 12:42:01
8529499 arendonk.interkoi.eu 0 17623284 2012-02-29 12:42:02
8529500 thesantaclararanch.com 0 No Rank 2012-02-29 12:42:03
8529501 ardrana.net 0 7733730 2012-02-29 12:42:04
8529502 123-geld.net 0 No Rank 2012-02-29 12:42:04
8529503 arellelabs.com 0 No Rank 2012-02-29 12:42:04
8529504 aredp-mrrd.gov.af 0 No Rank 2012-02-29 12:42:05
8529505 arenamanuellterapi.no 0 No Rank 2012-02-29 12:42:06
8529506 arebjornen-skidcenter.se 0 No Rank 2012-02-29 12:42:06
8529507 arditairko.lt 0 No Rank 2012-02-29 12:42:07
8529508 ardaboru.com 0 26611473 2012-02-29 12:42:08
8529509 arcustomhomes.com 0 No Rank 2012-02-29 12:42:10
8529510 arcolamills.org 0 No Rank 2012-02-29 12:42:10
8529511 ardaraee.ir 0 No Rank 2012-02-29 12:42:14
8529512 archivecorp.com 0 10353071 2012-02-29 12:42:15
8529513 123-geldanlage.net 0 No Rank 2012-02-29 12:42:15
8529514 architron.hu 0 No Rank 2012-02-29 12:42:16
8529515 123-gesund.at 0 No Rank 2012-02-29 12:42:16
8529516 archosmp3players.com 0 No Rank 2012-02-29 12:42:17
8529517 123-haustier.info 0 No Rank 2012-02-29 12:42:17
8529518 archmap.lt 0 19461561 2012-02-29 12:42:18
8529519 archercortlandt.com 0 9143199 2012-02-29 12:42:18
8529520 archidom.in 0 2312904 2012-02-29 12:42:21
8529521 123-home-garden-flower.com 0 4739678 2012-02-29 12:42:22
8529522 laleheskandari.com 0 No Rank 2012-02-29 12:42:22
8529523 archac.ch 0 No Rank 2012-02-29 12:42:24
8529524 123-homebiz.com 0 23518411 2012-02-29 12:42:24
8529525 arcaimages.org 0 No Rank 2012-02-29 12:42:25
8529526 arcelectricco.com 0 No Rank 2012-02-29 12:42:25
8529527 arch.duetsj.com.pl 0 12263626 2012-02-29 12:42:26
8529528 123-homepagecheck.de 0 No Rank 2012-02-29 12:42:27
8529529 glamourporfavor.com 0 4452346 2012-02-29 12:42:28
8529530 hells-angels-westend.de 0 22810347 2012-02-29 12:42:28
8529531 arch-j.com 0 No Rank 2012-02-29 12:42:29
8529532 website-questions.com 0 10211169 2012-02-29 12:42:30
8529533 arcengames.com 0 521704 2012-02-29 12:42:30
8529534 duanesphotography.com 0 No Rank 2012-02-29 12:42:32
8529535 arbscreen.com 0 3560486 2012-02-29 12:42:33
8529536 arcadegamesportal.com 0 9786020 2012-02-29 12:42:34
8529537 123-immobiliare.com 0 No Rank 2012-02-29 12:42:34
8529538 arachnoiditiscanada.com 0 No Rank 2012-02-29 12:42:34
8529539 aramsolar.com 0 8846774 2012-02-29 12:42:35
8529540 arborgainesville.com 0 No Rank 2012-02-29 12:42:35
8529541 araco.gr 0 No Rank 2012-02-29 12:42:35
8529542 123-hotel-motel.com 0 No Rank 2012-02-29 12:42:36
8529543 arabianpd.com 0 499083 2012-02-29 12:42:37
8529544 arbitral-mate.org 0 5274256 2012-02-29 12:42:38
8529545 jamoramauncovered.com 0 21420528 2012-02-29 12:42:40
8529546 123-india-hotel.com 0 1876482 2012-02-29 12:42:42
8529547 arabiancraft.net 0 No Rank 2012-02-29 12:42:43
8529548 123-internett.no 0 No Rank 2012-02-29 12:42:43
8529549 thewaltongroupinc.com 0 7099565 2012-02-29 12:42:43
8529550 aquilaecology.com 0 No Rank 2012-02-29 12:42:44
8529551 aquinasblog.com 0 17968825 2012-02-29 12:42:44
8529552 aquitaine.ffrandonnee.fr 0 292882 2012-02-29 12:42:44
8529553 123-jobs.com 0 16640382 2012-02-29 12:42:45
8529554 aquarez.rs 0 26741061 2012-02-29 12:42:45
8529555 arabic2u.my 0 11943912 2012-02-29 12:42:46
8529556 aquaquencher.com 0 No Rank 2012-02-29 12:42:46
8529557 hoperockscarolina.com 0 No Rank 2012-02-29 12:42:46
8529558 masajsalonlarix.com 0 No Rank 2012-02-29 12:42:46
8529559 arabakiralama.us 0 No Rank 2012-02-29 12:42:48
8529560 desjours-desnuits.net 0 No Rank 2012-02-29 12:42:50
8529561 aquamagia.com 0 24626725 2012-02-29 12:42:51
8529562 123-laserschweissen.de 0 17209338 2012-02-29 12:42:51
8529563 aquacuttechnologies.com 0 No Rank 2012-02-29 12:42:53
8529564 123-lernen.com 0 No Rank 2012-02-29 12:42:53
8529565 aqua-seafood.com 0 No Rank 2012-02-29 12:42:53
8529566 nativesonloghomes.com 0 No Rank 2012-02-29 12:42:54
8529567 aqua-well.ch 0 No Rank 2012-02-29 12:42:54
8529568 aquabk.com 0 No Rank 2012-02-29 12:42:54
8529569 123-kala.com 0 No Rank 2012-02-29 12:42:54
8529570 aqhuahong.com 0 No Rank 2012-02-29 12:42:55
8529571 123-pc.at 0 No Rank 2012-02-29 12:42:56
8529572 aptechbahrain.com 0 20028672 2012-02-29 12:42:56
8529573 apvalentine.students.uii.ac.id 0 30487 2012-02-29 12:42:57
8529574 aptitude-immobilier.com 0 No Rank 2012-02-29 12:42:58
8529575 123-peppy.com 0 10043723 2012-02-29 12:42:59
8529576 123-real-estate-los-angeles.com 0 No Rank 2012-02-29 12:43:01
8529577 aprilsbusybeesdaycare.com 0 No Rank 2012-02-29 12:43:01
8529578 apricotgold.net 0 No Rank 2012-02-29 12:43:02
8529579 apq-me.com 0 No Rank 2012-02-29 12:43:02
8529580 crystalandclinton.com 0 23928496 2012-02-29 12:43:02
8529581 apsinc.jp 0 No Rank 2012-02-29 12:43:02
8529582 appletoyz.com 0 No Rank 2012-02-29 12:43:03
8529583 123-rendite.com 0 No Rank 2012-02-29 12:43:03
8529584 appliedgraphicsonline.com 0 No Rank 2012-02-29 12:43:04
8529585 appliancedrain.com 0 No Rank 2012-02-29 12:43:05
8529586 applegrovemercantile.com 0 No Rank 2012-02-29 12:43:05
8529587 apttravel.com 0 3487969 2012-02-29 12:43:05
8529588 aptsdowntown.com 0 6136483 2012-02-29 12:43:07
8529589 appalachiafire.org 0 No Rank 2012-02-29 12:43:12
8529590 appelqvistglas.se 0 No Rank 2012-02-29 12:43:12
8529591 123-tpv.programasgratis.es 0 93436 2012-02-29 12:43:12
8529592 apparatebau.org 0 No Rank 2012-02-29 12:43:12
8529593 apothecaryshop.com 0 No Rank 2012-02-29 12:43:18
8529594 apotekinc.com 0 No Rank 2012-02-29 12:43:18
8529595 apotheke-am-langenbach.de 0 23276705 2012-02-29 12:43:18
8529596 123-testen.info 0 No Rank 2012-02-29 12:43:18
8529597 aposta.uv.es 0 13521 2012-02-29 12:43:18
8529598 ourgrandmasgarden.com 0 11454762 2012-02-29 12:43:18
8529599 youthgroupgames.co.uk 0 4700382 2012-02-29 12:43:18
8529600 vsemayki56106.front.ru 0 89366 2012-02-29 12:43:20
8529601 apnapakistani.net 0 22995620 2012-02-29 12:43:21
8529602 apollo-orkesteri.fi 0 No Rank 2012-02-29 12:43:21
8529603 apmas.org 0 4062787 2012-02-29 12:43:22
8529604 123-voyance.com 0 2252959 2012-02-29 12:43:22
8529605 apollomediablog.com 0 16864058 2012-02-29 12:43:22
8529606 apollolive.com 0 7772856 2012-02-29 12:43:22
8529607 blacklistboardshop.com 0 9649198 2012-02-29 12:43:23
8529608 apneshaadi.com 0 No Rank 2012-02-29 12:43:23
8529609 feddriver.ru 0 No Rank 2012-02-29 12:43:23
8529610 123-webcam-amateur.com 0 17894121 2012-02-29 12:43:24
8529611 apocello.ru 0 4757196 2012-02-29 12:43:25
8529612 123-websites.com 0 No Rank 2012-02-29 12:43:25
8529613 apicssiouxland.org 0 No Rank 2012-02-29 12:43:27
8529614 apl-hercynia.de 0 7999019 2012-02-29 12:43:28
8529615 aph-arch.ch 0 10240132 2012-02-29 12:43:28
8529616 apexwaterfilters.com 0 No Rank 2012-02-29 12:43:28
8529617 apexinspectioncenter.com 0 No Rank 2012-02-29 12:43:28
8529618 aplngroup.com 0 18770758 2012-02-29 12:43:28
8529619 apemacau.com 0 No Rank 2012-02-29 12:43:29
8529620 apeacefulpathmontessori.com 0 No Rank 2012-02-29 12:43:30
8529621 aperevod.ru 0 13023252 2012-02-29 12:43:31
8529622 bookexchangemarin.org 0 No Rank 2012-02-29 12:43:32
8529623 apassionforelvis.com 0 No Rank 2012-02-29 12:43:32
8529624 123.beibeiej.com 0 5443147 2012-02-29 12:43:32
8529625 apartmentsmatilija.com 0 No Rank 2012-02-29 12:43:34
8529626 guilfordyachtclub.com 0 No Rank 2012-02-29 12:43:35
8529627 apartmentcumcloset.com 0 No Rank 2012-02-29 12:43:37
8529628 apartment-babic.com 0 22040564 2012-02-29 12:43:37
8529629 apartmentresidence.com 0 22794374 2012-02-29 12:43:37
8529630 apartments-raic.com 0 No Rank 2012-02-29 12:43:38
8529631 apartmentsella.com 0 No Rank 2012-02-29 12:43:38
8529632 apartments-mladen-hvar.com 0 2416075 2012-02-29 12:43:38
8529633 apartmentshousing.info 0 No Rank 2012-02-29 12:43:38
8529634 123.cncshipping.com 0 6580882 2012-02-29 12:43:40
8529635 apartmani-vis.org 0 23503493 2012-02-29 12:43:40
8529636 apartmanbasic.com 0 No Rank 2012-02-29 12:43:40
8529637 123.fabao365.com 0 38845 2012-02-29 12:43:40
8529638 apajimu.com 0 No Rank 2012-02-29 12:43:40
8529639 apartamentygdansk.eu 0 7964125 2012-02-29 12:43:41
8529640 heledikkevrouwen495.sexdatingvrouwenneuken.info 0 No Rank 2012-02-29 12:43:44
8529641 123.dqshiyou.com 0 1182433 2012-02-29 12:43:45
8529642 aos-bd.com 0 21829560 2012-02-29 12:43:46
8529643 aovforex.com 0 19379114 2012-02-29 12:43:46
8529644 ap-immo.fr 0 8379406 2012-02-29 12:43:46
8529645 apacrubber.com 0 7949743 2012-02-29 12:43:47
8529646 aoterong.com 0 No Rank 2012-02-29 12:43:47
8529647 aoxu-sport.com 0 No Rank 2012-02-29 12:43:47
8529648 aorita.ru 0 11360229 2012-02-29 12:43:48
8529649 anywherefitnessinc.com 0 No Rank 2012-02-29 12:43:48
8529650 anyseasontravel.com 0 No Rank 2012-02-29 12:43:49
8529651 aolingdd.com 0 No Rank 2012-02-29 12:43:49
8529652 anystitch.com 0 No Rank 2012-02-29 12:43:51
8529653 123.kaba365.com 0 74231 2012-02-29 12:43:52
8529654 anut.com 0 No Rank 2012-02-29 12:43:56
8529655 anuntulse.ro 0 8253553 2012-02-29 12:43:57
8529656 dairyinstallation.com 0 No Rank 2012-02-29 12:43:57
8529657 antoinecm.com 0 No Rank 2012-02-29 12:43:57
8529658 antiwrinkleserums.org 0 No Rank 2012-02-29 12:43:59
8529659 anundsjoif.se 0 No Rank 2012-02-29 12:43:59
8529660 anttel-software.com 0 5708410 2012-02-29 12:44:00
8529661 antiquevespa.com 0 7230977 2012-02-29 12:44:05
8529662 antiquestopandshop.com 0 No Rank 2012-02-29 12:44:06
8529663 antiochchristiancenter.com 0 No Rank 2012-02-29 12:44:06
8529664 antiquemapart.com 0 7444605 2012-02-29 12:44:06
8529665 antipohmelin.ru 0 10781511 2012-02-29 12:44:06
8529666 antillesresorts.net 0 No Rank 2012-02-29 12:44:07
8529667 antikbornholm.dk 0 No Rank 2012-02-29 12:44:08
8529668 123.daozhou.net 0 106758 2012-02-29 12:44:08
8529669 123.kdslife.com 0 22014 2012-02-29 12:44:11
8529670 123.nustage.net 0 7135153 2012-02-29 12:44:13
8529671 anti-rutsch-schutz.de 0 18957586 2012-02-29 12:44:13
8529672 antbasket.com 0 No Rank 2012-02-29 12:44:14
8529673 antennelauget-soehus.dk 0 No Rank 2012-02-29 12:44:14
8529674 anti-agingonlyanumber.com 0 13795066 2012-02-29 12:44:15
8529675 anthonyspizzapalace.com 0 No Rank 2012-02-29 12:44:15
8529676 lesliejablonskipr.com 0 No Rank 2012-02-29 12:44:19
8529677 merch.wssofficial.com 0 1197713 2012-02-29 12:44:20
8529678 ant-tribe.com 0 No Rank 2012-02-29 12:44:20
8529679 antabis.net 0 No Rank 2012-02-29 12:44:20
8529680 123.qq163.cc 0 154753 2012-02-29 12:44:21
8529681 antalya.uz 0 No Rank 2012-02-29 12:44:22
8529682 anovelapproach.ca 0 No Rank 2012-02-29 12:44:23
8529683 ansarfinancial.com 0 No Rank 2012-02-29 12:44:23
8529684 123.saige.com 0 239031 2012-02-29 12:44:24
8529685 anothercandle.com 0 No Rank 2012-02-29 12:44:24
8529686 seniorbowlingtour.com 0 No Rank 2012-02-29 12:44:24
8529687 answer.net.my 0 No Rank 2012-02-29 12:44:24
8529688 answepyounglive.com 0 No Rank 2012-02-29 12:44:25
8529689 anonymoussurfingsolutions.com 0 No Rank 2012-02-29 12:44:25
8529690 shop.epicmealtime.com 0 82862 2012-02-29 12:44:26
8529691 anotherlife.se 0 No Rank 2012-02-29 12:44:27
8529692 anointedclothministry.com 0 No Rank 2012-02-29 12:44:28
8529693 elgolforestaurant.com 0 No Rank 2012-02-29 12:44:28
8529694 123.wuyiyi.info 0 1696096 2012-02-29 12:44:28
8529695 elite-repair.com 0 No Rank 2012-02-29 12:44:29
8529696 elijahtek.com 0 No Rank 2012-02-29 12:44:29
8529697 eliana66.com 0 No Rank 2012-02-29 12:44:29
8529698 elisesanchez.com 0 No Rank 2012-02-29 12:44:30
8529699 antalyauydu.net 0 No Rank 2012-02-29 12:44:31
8529700 antivirus365.net 0 126579 2012-02-29 12:44:31
8529701 americanlegion221.org 0 No Rank 2012-02-29 12:44:31
8529702 elisabethray.com 0 No Rank 2012-02-29 12:44:32
8529703 eliteconstructionsolutions.com 0 19947310 2012-02-29 12:44:32
8529704 elitepetcarepalmsprings.com 0 11449327 2012-02-29 12:44:33
8529705 elitetiels.com 0 No Rank 2012-02-29 12:44:34
8529706 123000678.com 0 No Rank 2012-02-29 12:44:34
8529707 goldcountrybaptist.org 0 23552271 2012-02-29 12:44:37
8529708 elkomcs.com 0 No Rank 2012-02-29 12:44:37
8529709 elmirahockey.com 0 9694428 2012-02-29 12:44:38
8529710 elpatronmexicangrill.net 0 7793684 2012-02-29 12:44:39
8529711 elusivstudios.com 0 No Rank 2012-02-29 12:44:41
8529712 eliteofficesoftware.com 0 No Rank 2012-02-29 12:44:41
8529713 elliemitchell.com 0 No Rank 2012-02-29 12:44:41
8529714 emasnc.org 0 No Rank 2012-02-29 12:44:42
8529715 elsegundosteamcleaning.com 0 No Rank 2012-02-29 12:44:42
8529716 emaildatabaselist.com 0 No Rank 2012-02-29 12:44:42
8529717 emaslelong.com 0 No Rank 2012-02-29 12:44:43
8529718 emedifile.com 0 No Rank 2012-02-29 12:44:43
8529719 elyascompany.net 0 No Rank 2012-02-29 12:44:43
8529720 12306huoche.com 0 1593931 2012-02-29 12:44:47
8529721 daybreakassemblytt.org 0 No Rank 2012-02-29 12:44:48
8529722 emergencypetcareroundrock.com 0 8501521 2012-02-29 12:44:48
8529723 emergencydanceparty.com 0 No Rank 2012-02-29 12:44:50
8529724 12307.info 0 No Rank 2012-02-29 12:44:50
8529725 emfmeasurement.com 0 No Rank 2012-02-29 12:44:51
8529726 caringcounselingco.com 0 No Rank 2012-02-29 12:44:52
8529727 emilysdayspaandsalon.com 0 No Rank 2012-02-29 12:44:52
8529728 emergetrust.org.nz 0 No Rank 2012-02-29 12:44:52
8529729 12306.uclan.com.cn 0 No Rank 2012-02-29 12:44:53
8529730 emirateshost.com 0 No Rank 2012-02-29 12:44:56
8529731 emingad.com 0 No Rank 2012-02-29 12:44:56
8529732 12314884.boss.com.tw 0 166297 2012-02-29 12:44:56
8529733 empacadoraalanis.com.mx 0 No Rank 2012-02-29 12:44:57
8529734 emongol.net 0 26636627 2012-02-29 12:44:57
8529735 emotionallightplay.com 0 No Rank 2012-02-29 12:44:57
8529736 emocosm.com 0 No Rank 2012-02-29 12:44:58
8529737 emp-mali.org 0 No Rank 2012-02-29 12:44:58
8529738 arizonagold.net 0 10676026 2012-02-29 12:45:00
8529739 emporiobridal.com 0 20353629 2012-02-29 12:45:01
8529740 wichersvanderschaaf.nl 0 No Rank 2012-02-29 12:45:01
8529741 empyrean.ca 0 No Rank 2012-02-29 12:45:01
8529742 empirewokchinesetakeout.com 0 11612882 2012-02-29 12:45:01
8529743 empoweringeducation.org 0 20520169 2012-02-29 12:45:01
8529744 12315.jhrx.cn 0 332281 2012-02-29 12:45:04
8529745 endless-dream.org 0 No Rank 2012-02-29 12:45:05
8529746 mccormacksturnhout.com 0 No Rank 2012-02-29 12:45:05
8529747 encompassmarine.com 0 20464140 2012-02-29 12:45:06
8529748 endeavourhomes.co.nz 0 No Rank 2012-02-29 12:45:07
8529749 energychironyc.com 0 17665664 2012-02-29 12:45:07
8529750 energo-st.com 0 No Rank 2012-02-29 12:45:07
8529751 engagingtheunderachiever.com 0 No Rank 2012-02-29 12:45:07
8529752 enduranceworldonline.com 0 17733072 2012-02-29 12:45:07
8529753 endurancesaddlepad.com 0 10767183 2012-02-29 12:45:07
8529754 enkisplashbacks.com 0 No Rank 2012-02-29 12:45:10
8529755 enoncog.com 0 No Rank 2012-02-29 12:45:15
8529756 enterijerisavic.com 0 No Rank 2012-02-29 12:45:16
8529757 enrightcattlecompany.com 0 No Rank 2012-02-29 12:45:16
8529758 entropysedge.com 0 27734370 2012-02-29 12:45:16
8529759 ensemblecustomsystems.com 0 No Rank 2012-02-29 12:45:16
8529760 ent-tb.com 0 No Rank 2012-02-29 12:45:16
8529761 enrobed.com 0 No Rank 2012-02-29 12:45:16
8529762 123.xb78.com 0 14912742 2012-02-29 12:45:17
8529763 envirocorpinternational.com 0 No Rank 2012-02-29 12:45:17
8529764 envdrain.com 0 No Rank 2012-02-29 12:45:17
8529765 enro.info 0 No Rank 2012-02-29 12:45:18
8529766 123155.com 0 No Rank 2012-02-29 12:45:18
8529767 eninuavyj.tk 0 No Rank 2012-02-29 12:45:18
8529768 eorisessence.com 0 26582808 2012-02-29 12:45:18
8529769 epaisnouillis.com 0 No Rank 2012-02-29 12:45:19
8529770 enlightenedinc.com 0 4794990 2012-02-29 12:45:19
8529771 alouanecreation.com 0 No Rank 2012-02-29 12:45:20
8529772 12320400.boss.com.tw 0 166297 2012-02-29 12:45:20
8529773 grassrootsresearch.org 0 9614553 2012-02-29 12:45:22
8529774 12319086.boss.com.tw 0 166297 2012-02-29 12:45:24
8529775 alohanews.com 0 21924040 2012-02-29 12:45:25
8529776 thesouthshorepages.com 0 23599889 2012-02-29 12:45:26
8529777 alohatrackandfield.com 0 No Rank 2012-02-29 12:45:26
8529778 alnarpsparken.com 0 No Rank 2012-02-29 12:45:26
8529779 aloevera.jp-design.sk 0 3085199 2012-02-29 12:45:26
8529780 alnahlasolutions.com 0 No Rank 2012-02-29 12:45:26
8529781 aloe-vera.lt 0 3504040 2012-02-29 12:45:27
8529782 aloevera-produkty.sk 0 3328335 2012-02-29 12:45:27
8529783 resortrealestateoc.com 0 No Rank 2012-02-29 12:45:27
8529784 almontepottersguild.com 0 25708096 2012-02-29 12:45:28
8529785 almoztar.com 0 No Rank 2012-02-29 12:45:29
8529786 alopeciauniversal.es 0 6179922 2012-02-29 12:45:29
8529787 michiganmechanical.com 0 No Rank 2012-02-29 12:45:30
8529788 12333.ad-yuyaotv.com 0 14644483 2012-02-29 12:45:32
8529789 1231818.com 0 No Rank 2012-02-29 12:45:33
8529790 123326.hnce.com.cn 0 98357 2012-02-29 12:45:34
8529791 12328.net 0 No Rank 2012-02-29 12:45:34
8529792 allvideosongs.com 0 No Rank 2012-02-29 12:45:35
8529793 almightybailbonds.com 0 9678437 2012-02-29 12:45:35
8529794 almio.cz 0 6740072 2012-02-29 12:45:35
8529795 allurelurgan.com 0 No Rank 2012-02-29 12:45:36
8529796 allstuff.c4.fr 0 548481 2012-02-29 12:45:38
8529797 12333.kaoshiwa.com 0 15392783 2012-02-29 12:45:38
8529798 alltechisolutions.com 0 No Rank 2012-02-29 12:45:38
8529799 almaz-electro.ru 0 No Rank 2012-02-29 12:45:38
8529800 newvistaschristian.com 0 22130614 2012-02-29 12:45:40
8529801 faithfamilymedical.com 0 No Rank 2012-02-29 12:45:41
8529802 allshoresrealestate.com 0 No Rank 2012-02-29 12:45:44
8529803 allstarelectricllc.com 0 No Rank 2012-02-29 12:45:44
8529804 12333.fabao365.com 0 38845 2012-02-29 12:45:44
8529805 allseasonstyle.com 0 No Rank 2012-02-29 12:45:46
8529806 allsportsreplay.com 0 9319671 2012-02-29 12:45:46
8529807 emelya-lya.mp 0 No Rank 2012-02-29 12:45:46
8529808 rocknreincarnation.com 0 No Rank 2012-02-29 12:45:46
8529809 adventureoutpost.net 0 3295882 2012-02-29 12:45:46
8529810 allseasons-trade.eu 0 23290829 2012-02-29 12:45:47
8529811 123336.hnce.com.cn 0 98357 2012-02-29 12:45:48
8529812 advertisedominica.com 0 No Rank 2012-02-29 12:45:50
8529813 de-interim-makelaar.nl 0 17228790 2012-02-29 12:45:51
8529814 adventtherapy.com 0 No Rank 2012-02-29 12:45:53
8529815 alloverhomeinspection.com 0 No Rank 2012-02-29 12:45:53
8529816 allsaintsminot.org 0 15957918 2012-02-29 12:45:53
8529817 adventistas.ws 0 2463592 2012-02-29 12:45:55
8529818 allosventures.com 0 6090975 2012-02-29 12:45:55
8529819 adventureheadquarters.co.nz 0 No Rank 2012-02-29 12:45:55
8529820 adventurebugs.com 0 No Rank 2012-02-29 12:45:56
8529821 12333sh.ad-yuyaotv.com 0 14644483 2012-02-29 12:45:57
8529822 celebrationcakes.co.nz 0 4653486 2012-02-29 12:45:58
8529823 alloneplanet.com 0 No Rank 2012-02-29 12:45:58
8529824 roofingoptions.beeplog.com 0 22799 2012-02-29 12:45:58
8529825 gratisvirusprogram.net 0 No Rank 2012-02-29 12:46:00
8529826 1234.tw.st 0 881673 2012-02-29 12:46:02
8529827 allofftopic.com 0 2630720 2012-02-29 12:46:03
8529828 alllivenet.com 0 No Rank 2012-02-29 12:46:03
8529829 advantagehire.com 0 No Rank 2012-02-29 12:46:03
8529830 advantagetenant.com 0 1816046 2012-02-29 12:46:03
8529831 allkindsofsunglasses.com 0 25451821 2012-02-29 12:46:04
8529832 allknowhow.com 0 No Rank 2012-02-29 12:46:04
8529833 advantageconcretepa.com 0 21360023 2012-02-29 12:46:04
8529834 advantagephone.com 0 No Rank 2012-02-29 12:46:04
8529835 allisonsblinds.com 0 21574361 2012-02-29 12:46:06
8529836 advancomm.net 0 27422797 2012-02-29 12:46:07
8529837 1234.elaphblog.com 0 53316 2012-02-29 12:46:07
8529838 advancesolutionsltd.com 0 No Rank 2012-02-29 12:46:07
8529839 1233gls.com 0 No Rank 2012-02-29 12:46:09
8529840 advancemarketworx.org 0 No Rank 2012-02-29 12:46:12
8529841 advancedsensingandcontrols.com 0 No Rank 2012-02-29 12:46:13
8529842 allinsms.com 0 No Rank 2012-02-29 12:46:14
8529843 advancedproperty.org 0 23102923 2012-02-29 12:46:16
8529844 advancedmotorcycletraining.com 0 2072521 2012-02-29 12:46:17
8529845 apartmentsbudapest.org 0 No Rank 2012-02-29 12:46:21
8529846 allianceofficestrategies.com 0 No Rank 2012-02-29 12:46:21
8529847 advancedinfotechinc.com 0 No Rank 2012-02-29 12:46:21
8529848 advancedigitalsys.com 0 15978723 2012-02-29 12:46:21
8529849 montenegro.utazni.info 0 1627059 2012-02-29 12:46:23
8529850 allgooddogs.biz 0 6434801 2012-02-29 12:46:25
8529851 allianceconstructioninc.com 0 No Rank 2012-02-29 12:46:25
8529852 advanceddj.ca 0 No Rank 2012-02-29 12:46:25
8529853 christmaslights.8k.com 0 3521 2012-02-29 12:46:30
8529854 grandarussalamedan.com 0 No Rank 2012-02-29 12:46:31
8529855 allfreetemplates.us 0 No Rank 2012-02-29 12:46:31
8529856 allexinfante.org 0 No Rank 2012-02-29 12:46:34
8529857 adtmetaltech.com 0 No Rank 2012-02-29 12:46:34
8529858 allergycottage.com 0 No Rank 2012-02-29 12:46:36
8529859 godayoga.hypermart.net 0 15491 2012-02-29 12:46:38
8529860 southernsimplicity.com 0 No Rank 2012-02-29 12:46:40
8529861 adsl-telecom.be 0 15607877 2012-02-29 12:46:41
8529862 utorrent.blogs.sapo.pt 0 6809685 2012-02-29 12:46:42
8529863 allemand-a-berlin.de 0 1055683 2012-02-29 12:46:42
8529864 adriennedillon.net 0 No Rank 2012-02-29 12:46:42
8529865 talbotstreetmarina.com 0 25828703 2012-02-29 12:46:43
8529866 allcraft.com 0 No Rank 2012-02-29 12:46:44
8529867 allegra-nova.be 0 No Rank 2012-02-29 12:46:44
8529868 adriansoars.com 0 No Rank 2012-02-29 12:46:44
8529869 adreanainlongbeach.com 0 22993096 2012-02-29 12:46:44
8529870 adrenalina4x4.com 0 8262519 2012-02-29 12:46:45
8529871 treehouseartcenter.com 0 No Rank 2012-02-29 12:46:45
8529872 adsenseearnmoney.org 0 4633303 2012-02-29 12:46:46
8529873 alleghanykids.com 0 No Rank 2012-02-29 12:46:46
8529874 adresi.org 0 No Rank 2012-02-29 12:46:48
8529875 adriennecrew.com 0 No Rank 2012-02-29 12:46:48
8529876 sugarcoveredquills.net 0 No Rank 2012-02-29 12:46:48
8529877 themagicbulletfund.org 0 3375790 2012-02-29 12:46:49
8529878 adorablepearls.com 0 No Rank 2012-02-29 12:46:50
8529879 thetaxprofessional.net 0 8431734 2012-02-29 12:46:51
8529880 allcornershelves.com 0 No Rank 2012-02-29 12:46:51
8529881 barrettsautomarine.com 0 No Rank 2012-02-29 12:46:53
8529882 allbreedstalliondirectory.com 0 No Rank 2012-02-29 12:46:53
8529883 adonais-ferienhaus.de 0 9775286 2012-02-29 12:46:53
8529884 allchooedup.com 0 No Rank 2012-02-29 12:46:54
8529885 allcasinoslotsusa.com 0 No Rank 2012-02-29 12:46:54
8529886 allchicagolimo.com 0 No Rank 2012-02-29 12:46:54
8529887 allcellbrands.com 0 No Rank 2012-02-29 12:46:55
8529888 adonis-m.ru 0 9058720 2012-02-29 12:46:55
8529889 colescountyhabitat.net 0 No Rank 2012-02-29 12:46:56
8529890 wein-versteigerung.net 0 No Rank 2012-02-29 12:46:59
8529891 nelissenmakelaardij.nl 0 No Rank 2012-02-29 12:46:59
8529892 allartsmanistee.com 0 No Rank 2012-02-29 12:46:59
8529893 comfybeanbagchairs.com 0 4172874 2012-02-29 12:47:01
8529894 admvolot.net 0 10781438 2012-02-29 12:47:02
8529895 gallery2.glenworth.com 0 21620609 2012-02-29 12:47:02
8529896 admixfoods.com 0 No Rank 2012-02-29 12:47:02
8529897 allanrougestudios.com 0 No Rank 2012-02-29 12:47:03
8529898 telairgenerators.co.uk 0 21459634 2012-02-29 12:47:03
8529899 admiraltyandmaritime.com 0 19868363 2012-02-29 12:47:03
8529900 allaroundmanagement.net 0 No Rank 2012-02-29 12:47:03
8529901 adlounge.in 0 944656 2012-02-29 12:47:04
8529902 firstamericanfoods.com 0 No Rank 2012-02-29 12:47:04
8529903 allartdirectory.com 0 No Rank 2012-02-29 12:47:10
8529904 allanfedor.com 0 No Rank 2012-02-29 12:47:10
8529905 adjust.net 0 20387049 2012-02-29 12:47:11
8529906 allanhirsh.com 0 No Rank 2012-02-29 12:47:11
8529907 adivamurphy.com 0 No Rank 2012-02-29 12:47:14
8529908 adjaya.info 0 886239 2012-02-29 12:47:14
8529909 adiyamantso.org.tr 0 12021905 2012-02-29 12:47:15
8529910 allaboutkidsnapa.com 0 No Rank 2012-02-29 12:47:15
8529911 allaboutholly.com 0 No Rank 2012-02-29 12:47:15
8529912 aditus.se 0 No Rank 2012-02-29 12:47:16
8529913 myapple.shopinblog.com 0 6504589 2012-02-29 12:47:17
8529914 adistec.com 0 5430214 2012-02-29 12:47:18
8529915 allaboutautocad.com 0 4257367 2012-02-29 12:47:20
8529916 simplyd4rk.skyrock.com 0 618 2012-02-29 12:47:20
8529917 adiringler.de 0 No Rank 2012-02-29 12:47:22
8529918 adiesel.us 0 No Rank 2012-02-29 12:47:23
8529919 nanocofc.org.pl 0 1272514 2012-02-29 12:47:24
8529920 rightstartenergy.co.uk 0 No Rank 2012-02-29 12:47:24
8529921 adipopa.com 0 No Rank 2012-02-29 12:47:24
8529922 adiem-ag.com 0 24626004 2012-02-29 12:47:25
8529923 ricms.fiscosoft.com.br 0 139281 2012-02-29 12:47:26
8529924 all-tools.com.ua 0 No Rank 2012-02-29 12:47:27
8529925 adhyatm.com 0 No Rank 2012-02-29 12:47:27
8529926 all-ringtones.us 0 No Rank 2012-02-29 12:47:27
8529927 adhocproductions.co.za 0 No Rank 2012-02-29 12:47:28
8529928 richmondartsreview.com 0 18073825 2012-02-29 12:47:29
8529929 adgolvslip.se 0 13778354 2012-02-29 12:47:29
8529930 all-it.ro 0 No Rank 2012-02-29 12:47:31
8529931 anwaltskanzleiabeln.eu 0 No Rank 2012-02-29 12:47:33
8529932 alkenbbc.be 0 No Rank 2012-02-29 12:47:34
8529933 all-doc.com 0 3089339 2012-02-29 12:47:34
8529934 adeoye.net 0 No Rank 2012-02-29 12:47:34
8529935 ademcelikmakina.com 0 26947780 2012-02-29 12:47:36
8529936 adeccopanama.com 0 22500364 2012-02-29 12:47:38
8529937 meghanpatriceriley.com 0 12906717 2012-02-29 12:47:40
8529938 alistrealtygroup.com 0 No Rank 2012-02-29 12:47:40
8529939 carflippingprofits.com 0 10304356 2012-02-29 12:47:41
8529940 rehanamakeupartist.com 0 No Rank 2012-02-29 12:47:43
8529941 add-video-to-website.com 0 No Rank 2012-02-29 12:47:44
8529942 alisysmexico.com 0 No Rank 2012-02-29 12:47:44
8529943 itooke.com 0 No Rank 2012-02-29 12:47:44
8529944 singaporefxacademy.com 0 No Rank 2012-02-29 12:47:44
8529945 alis-veris.com 0 8034984 2012-02-29 12:47:44
8529946 aligul.net 0 No Rank 2012-02-29 12:47:47
8529947 pulltabsforcharity.org 0 8661105 2012-02-29 12:47:47
8529948 adarevillage.com 0 10433755 2012-02-29 12:47:51
8529949 alidrissi.org 0 10890883 2012-02-29 12:47:51
8529950 adamsstate.com 0 19028894 2012-02-29 12:47:53
8529951 merterveteriner.8k.com 0 3521 2012-02-29 12:47:53
8529952 aliforouzesh.com 0 27334442 2012-02-29 12:47:54
8529953 aliceadair.com 0 No Rank 2012-02-29 12:47:56
8529954 adamshealingarts.com 0 No Rank 2012-02-29 12:47:57
8529955 spione.adept-press.com 0 3424047 2012-02-29 12:47:57
8529956 adams-harper-pa.com 0 671613 2012-02-29 12:47:59
8529957 adamrobezzoli.com 0 22669135 2012-02-29 12:47:59
8529958 alhwitan.com 0 No Rank 2012-02-29 12:48:00
8529959 algonquinrc.com 0 No Rank 2012-02-29 12:48:00
8529960 adamintegrated.ca 0 27571177 2012-02-29 12:48:00
8529961 adamgarlinger.com 0 No Rank 2012-02-29 12:48:02
8529962 kiran.hemantmistry.com 0 20864210 2012-02-29 12:48:02
8529963 adamcphotography.com 0 No Rank 2012-02-29 12:48:03
8529964 alfmchurch.com 0 No Rank 2012-02-29 12:48:04
8529965 adadcommunications.com 0 No Rank 2012-02-29 12:48:05
8529966 algiguam.pl 0 10633124 2012-02-29 12:48:05
8529967 adamastrio.com 0 No Rank 2012-02-29 12:48:05
8529968 ad-toys.com 0 No Rank 2012-02-29 12:48:06
8529969 alfanoitalia.com 0 11304372 2012-02-29 12:48:06
8529970 chinatuinatraining.com 0 No Rank 2012-02-29 12:48:07
8529971 alfetta-gtv.net 0 No Rank 2012-02-29 12:48:08
8529972 alfa-romeo.hmj.es 0 No Rank 2012-02-29 12:48:09
8529973 acutemarquetry.com 0 No Rank 2012-02-29 12:48:09
8529974 alhendersonmusic.com 0 No Rank 2012-02-29 12:48:12
8529975 alfa-hotel.ru 0 1753761 2012-02-29 12:48:14
8529976 acupunturaparaadelgazar.org 0 19495557 2012-02-29 12:48:16
8529977 alexispeyer.com 0 No Rank 2012-02-29 12:48:16
8529978 realacabamentos.com.br 0 No Rank 2012-02-29 12:48:17
8529979 alexmeister.com 0 21228876 2012-02-29 12:48:17
8529980 acubioma.se 0 22787009 2012-02-29 12:48:17
8529981 acuspecinc.com 0 No Rank 2012-02-29 12:48:18
8529982 alexiscanoni.com 0 No Rank 2012-02-29 12:48:19
8529983 actv7news.com 0 1076915 2012-02-29 12:48:19
8529984 bstk.game-engine.co.uk 0 4939939 2012-02-29 12:48:20
8529985 alexauto.go.ro 0 95390 2012-02-29 12:48:20
8529986 willwaywoodworking.com 0 No Rank 2012-02-29 12:48:21
8529987 greenkristine.zlio.net 0 1599284 2012-02-29 12:48:22
8529988 alexanderproductions.com 0 23474275 2012-02-29 12:48:25
8529989 alex-d-burson.com 0 No Rank 2012-02-29 12:48:25
8529990 alexanderday.net 0 No Rank 2012-02-29 12:48:25
8529991 alexandergreen.com 0 No Rank 2012-02-29 12:48:25
8529992 leisuretymerentals.com 0 No Rank 2012-02-29 12:48:25
8529993 alex.acme.pl 0 7781993 2012-02-29 12:48:26
8529994 alentejopress.com 0 No Rank 2012-02-29 12:48:26
8529995 celerycitycruisers.com 0 No Rank 2012-02-29 12:48:26
8529996 alefblog.com 0 27278518 2012-02-29 12:48:28
8529997 aldunning.com 0 3162109 2012-02-29 12:48:28
8529998 sunsetaraliyahotel.com 0 No Rank 2012-02-29 12:48:29
8529999 yumaweddingplanner.com 0 No Rank 2012-02-29 12:48:30